GW1109 Weather Reports


time (UTC)temp
C
wind
direction
speed
KPH
gust
KPH
rain 1hr
cm
rain 24hr
cm
rain mn
cm
humidity
%
barometer
mb
20260903134553 20 0 1.6 4.8 0.03 0.56 0.56 100 1015.5
20260903133111 20 194 1.6 3.2 0.03 0.56 0.56 100 1015.4
20260903131610 19 146 0.0 6.4 0.05 0.56 0.56 100 1015.4
20260903130120 19 116 1.6 6.4 0.05 0.56 0.56 100 1015.6
20260903124553 19 0 1.6 4.8 0.05 0.53 0.53 100 1015.8
20260903123100 18 136 0.0 8.0 0.08 0.53 0.53 100 1015.9
20260903121558 18 0 0.0 8.0 0.08 0.51 0.51 100 1016.1
20260903120055 18 0 1.6 6.4 0.13 0.51 0.51 100 1016.3
20260903114548 18 0 1.6 6.4 0.13 0.48 0.48 100 1016.4
20260903113101 18 0 0.0 6.4 0.10 0.46 0.46 100 1016.5
20260903111606 18 0 0.0 6.4 0.08 0.43 0.43 100 1016.2
20260903110051 18 0 0.0 3.2 0.03 0.38 0.38 100 1016.2
20260903104549 18 0 1.6 4.8 0.00 0.36 0.36 100 1016.1
20260903103101 17 146 0.0 6.4 0.00 0.36 0.36 100 1016.0
20260903101603 17 0 0.0 4.8 0.00 0.36 0.36 100 1016.1
20260903100054 17 0 0.0 3.2 0.05 0.36 0.36 100 1016.2
20260903094554 17 0 0.0 4.8 0.15 0.36 0.36 100 1016.5
20260903093112 17 0 0.0 3.2 0.36 0.36 0.36 100 1016.6
20260903091557 17 223 1.6 11.3 0.36 0.36 0.36 100 1016.9
20260903090051 18 113 1.6 9.7 0.30 0.30 0.30 100 1017.0
20260903084601 18 39 0.0 6.4 0.18 0.18 0.18 100 1017.0
20260903083057 18 331 4.8 12.9 0.00 0.00 0.00 100 1017.1
20260903081550 18 0 0.0 0.0 0.00 0.00 0.00 100 1016.7
20260903080051 18 0 0.0 4.8 0.00 0.00 0.00 100 1016.8
20260903074557 18 0 0.0 4.8 0.00 0.00 0.00 100 1016.8
20260903073052 18 0 0.0 1.6 0.00 0.00 0.00 100 1016.8
20260903071547 18 168 1.6 4.8 0.00 0.00 0.00 100 1016.9
20260903070048 18 0 0.0 3.2 0.00 0.00 0.00 100 1017.3
20260903064554 18 0 0.0 8.0 0.00 0.00 0.00 100 1017.5
20260903063050 18 152 1.6 8.0 0.00 0.00 0.00 100 1018.0
20260903061606 18 200 1.6 8.0 0.00 0.00 0.00 100 1018.5
20260903060056 18 140 0.0 3.2 0.00 0.00 0.00 100 1018.9
20260903054559 18 0 0.0 3.2 0.00 0.00 0.00 100 1018.7
20260903053100 18 74 0.0 3.2 0.00 0.00 0.00 100 1018.6
20260903051556 18 0 0.0 3.2 0.00 0.00 0.00 100 1018.9
20260903050052 18 0 0.0 3.2 0.00 0.00 0.00 100 1018.9
20260903044558 18 0 0.0 3.2 0.00 0.00 0.00 100 1019.0
20260903043059 18 0 0.0 3.2 0.00 0.00 0.00 100 1019.3
20260903041557 18 0 0.0 3.2 0.00 0.00 0.00 100 1019.3
20260903040104 18 55 0.0 1.6 0.00 0.00 0.00 100 1019.3
20260903034603 18 0 0.0 1.6 0.00 0.00 0.00 100 1020.0
20260903033057 17 0 0.0 1.6 0.00 0.00 0.00 100 1020.4
20260903031552 17 0 0.0 1.6 0.00 0.00 0.00 100 1020.2
20260903030103 17 0 0.0 1.6 0.00 0.00 0.00 100 1020.1
20260903024558 17 0 0.0 1.6 0.00 0.00 0.00 99 1020.2
20260903023120 17 0 0.0 1.6 0.00 0.00 0.00 99 1020.3
20260903021550 17 0 0.0 1.6 0.00 0.00 0.00 99 1020.3
20260903020059 17 0 0.0 3.2 0.00 0.00 0.00 99 1020.5
20260903014603 17 0 0.0 1.6 0.00 0.00 0.00 98 1020.6
20260903013057 17 0 0.0 1.6 0.00 0.00 0.00 97 1020.5
20260903011552 16 0 0.0 6.4 0.00 0.00 0.00 96 1020.3
20260903010059 16 0 1.6 8.0 0.00 0.00 0.00 95 1020.5
20260903004559 16 180 3.2 11.3 0.00 0.00 0.00 92 1020.1
20260903003051 16 109 1.6 12.9 0.00 0.00 0.00 90 1020.1
20260903001553 16 0 0.0 9.7 0.00 0.00 0.00 88 1020.2
20260903000100 16 120 1.6 6.4 0.00 0.00 0.00 86 1020.4
20260902234606 16 173 1.6 8.0 0.00 0.00 0.00 84 1020.8
20260902233058 16 0 0.0 6.4 0.00 0.00 0.00 81 1021.1
20260902231555 16 168 0.0 4.8 0.00 0.00 0.00 79 1021.1
20260902230100 17 192 0.0 9.7 0.00 0.00 0.00 77 1021.1
20260902224559 17 173 0.0 9.7 0.00 0.00 0.00 75 1021.5
20260902223103 17 120 3.2 8.0 0.00 0.00 0.00 73 1021.5
20260902221605 18 177 1.6 8.0 0.00 0.00 0.00 71 1021.8
20260902220100 18 116 1.6 6.4 0.00 0.00 0.00 69 1021.8
20260902214557 18 150 1.6 12.9 0.00 0.00 0.00 66 1021.6
20260902213053 19 139 1.6 9.7 0.00 0.00 0.00 65 1021.5
20260902211550 19 155 3.2 11.3 0.00 0.00 0.00 64 1021.8
20260902210057 20 104 3.2 14.5 0.00 0.00 0.00 62 1021.5
20260902204559 20 36 4.8 11.3 0.00 0.00 0.00 61 1021.7
20260902203054 20 265 3.2 11.3 0.00 0.00 0.00 66 1021.8
20260902201607 19 204 4.8 14.5 0.00 0.00 0.00 62 1021.8
20260902200058 19 0 1.6 12.9 0.00 0.00 0.00 61 1022.1
20260902194557 19 178 6.4 11.3 0.00 0.00 0.00 59 1022.4
20260902193058 20 153 4.8 12.9 0.00 0.00 0.00 60 1022.7
20260902191601 20 118 1.6 9.7 0.00 0.00 0.00 60 1022.5
20260902184557 19 135 4.8 11.3 0.00 0.00 0.00 59 1022.2
20260902183105 19 132 3.2 11.3 0.00 0.00 0.00 62 1022.5
20260902181555 18 136 3.2 11.3 0.00 0.00 0.00 62 1022.7
20260902180055 18 170 3.2 11.3 0.00 0.00 0.00 63 1022.9
20260902174559 18 40 1.6 9.7 0.00 0.00 0.00 69 1022.8
20260902173057 18 225 3.2 9.7 0.00 0.00 0.00 69 1022.9
20260902171605 18 162 1.6 9.7 0.00 0.00 0.00 70 1022.8
20260902170103 18 201 1.6 11.3 0.00 0.00 0.00 72 1022.9
20260902164601 19 124 4.8 12.9 0.00 0.00 0.00 73 1022.7
20260902163054 18 92 1.6 8.0 0.00 0.00 0.00 80 1022.8
20260902161608 18 148 1.6 9.7 0.00 0.00 0.00 80 1023.2
20260902160116 18 126 0.0 8.0 0.00 0.00 0.00 81 1023.4
20260902154601 18 103 1.6 8.0 0.00 0.00 0.00 81 1023.5
20260902153055 18 117 1.6 6.4 0.00 0.00 0.00 82 1023.6
20260902151609 18 196 1.6 11.3 0.00 0.00 0.00 82 1023.6
20260902150100 18 0 1.6 6.4 0.00 0.00 0.00 83 1023.5
20260902144556 18 0 1.6 6.4 0.00 0.00 0.00 85 1023.2
20260902143053 18 81 3.2 11.3 0.00 0.00 0.00 88 1023.1
20260902141558 18 171 4.8 12.9 0.00 0.00 0.00 96 1023.1
20260902140059 18 70 1.6 6.4 0.00 0.00 0.00 100 1023.0